Terminal Aerodrome Forecast
Issued by NWS Charleston, WV

Current Version | Previous Version | Text Only | Print | Product List | Glossary Off
Versions: 1 2 3 4 5 6 7 8 9 10 11 12 13 14 15 16 17 18 19 20 21

000
FTUS41 KRLX 240500 RRA
TAFCRW
TAF
KCRW 240557Z 2406/2506 35004KT 1SM -RASN BR BKN004 OVC020
     FM240700 VRB03KT 1SM -SN BR OVC004
      TEMPO 2410/2412 1/2SM SN OVC004
     FM241400 30007KT 5SM BR OVC004
     FM241500 28007KT P6SM BKN008
     FM241800 26009G17KT P6SM BKN020=

USA.gov is the U.S. government's official web portal to all federal, state and local government web resources and services.